QPF
0.01 0.01 0.01 0.00 0.00 0.00 0.00 0.01 0.01 0.00 0.00 0.00 0.00 0.00 0.00 0.00 0.00 0.00 0.00 0.00 0.00 0.00 0.00 0.00 0.00 0.00 0.00 0.00 0.00 0.00 0.00 0.01 0.02 0.03 0.04 0.04 0.04 0.04 0.04 0.05 0.05 0.05 0.05 0.06
0.01 0.01 0.00 0.00 0.00 0.00 0.00 0.00 0.00 0.00 0.00 0.00 0.00 0.00 0.00 0.00 0.00 0.00 0.00 0.00 0.00 0.00 0.00 0.00 0.00 0.00 0.00 0.00 0.00 0.00 0.00 0.01 0.02 0.03 0.04 0.04 0.04 0.04 0.04 0.04 0.04 0.04 0.05 0.05
0.01 0.00 0.00 0.00 0.00 0.00 0.00 0.00 0.00 0.00 0.00 0.00 0.00 0.00 0.00 0.00 0.00 0.00 0.00 0.00 0.00 0.00 0.00 0.00 0.00 0.00 0.00 0.00 0.01 0.00 0.00 0.00 0.01 0.02 0.03 0.04 0.04 0.04 0.04 0.04 0.04 0.04 0.04 0.04
0.00 0.00 0.00 0.00 0.00 0.00 0.00 0.00 0.00 0.00 0.00 0.00 0.00 0.01 0.00 0.00 0.00 0.00 0.00 0.00 0.00 0.00 0.00 0.00 0.00 0.00 0.00 0.00 0.00 0.00 0.00 0.00 0.00 0.01 0.02 0.03 0.04 0.03 0.03 0.04 0.04 0.04 0.04 0.04
0.00 0.00 0.00 0.00 0.00 0.00 0.00 0.00 0.00 0.00 0.00 0.00 0.00 0.01 0.00 0.00 0.00 0.00 0.00 0.00 0.00 0.00 0.00 0.00 0.00 0.00 0.00 0.00 0.00 0.01 0.01 0.00 0.00 0.01 0.02 0.03 0.04 0.03 0.03 0.04 0.04 0.05 0.05 0.04
0.01 0.01 0.00 0.00 0.00 0.00 0.00 0.00 0.00 0.00 0.01 0.01 0.00 0.00 0.00 0.00 0.00 0.00 0.00 0.00 0.00 0.00 0.00 0.00 0.00 0.00 0.00 0.00 0.00 0.01 0.01 0.01 0.00 0.00 0.01 0.02 0.03 0.03 0.03 0.03 0.04 0.05 0.05 0.05
0.02 0.02 0.01 0.00 0.00 0.01 0.01 0.01 0.02 0.02 0.02 0.01 0.00 0.00 0.00 0.00 0.00 0.00 0.00 0.00 0.00 0.00 0.00 0.00 0.00 0.00 0.00 0.00 0.00 0.00 0.01 0.01 0.01 0.01 0.01 0.01 0.02 0.03 0.03 0.03 0.03 0.04 0.05 0.05
0.03 0.02 0.01 0.01 0.01 0.01 0.01 0.01 0.01 0.01 0.01 0.00 0.00 0.00 0.00 0.00 0.00 0.00 0.00 0.00 0.00 0.00 0.00 0.00 0.00 0.00 0.00 0.00 0.00 0.00 0.00 0.01 0.02 0.02 0.01 0.01 0.02 0.03 0.04 0.03 0.02 0.03 0.03 0.05
0.03 0.02 0.01 0.01 0.00 0.00 0.00 0.00 0.00 0.01 0.01 0.00 0.00 0.00 0.00 0.00 0.00 0.00 0.00 0.00 0.00 0.00 0.00 0.00 0.01 0.01 0.00 0.00 0.00 0.00 0.00 0.01 0.02 0.02 0.02 0.02 0.02 0.03 0.04 0.03 0.02 0.02 0.02 0.03
0.03 0.02 0.01 0.00 0.00 0.01 0.00 0.01 0.01 0.03 0.02 0.01 0.00 0.00 0.00 0.00 0.00 0.00 0.00 0.00 0.00 0.00 0.00 0.00 0.00 0.01 0.01 0.00 0.00 0.00 0.00 0.00 0.01 0.01 0.01 0.01 0.02 0.02 0.03 0.03 0.03 0.02 0.02 0.02
0.03 0.04 0.03 0.02 0.02 0.01 0.01 0.02 0.02 0.02 0.02 0.01 0.00 0.00 0.00 0.00 0.00 0.00 0.00 0.00 0.00 0.00 0.00 0.00 0.00 0.00 0.01 0.01 0.00 0.00 0.00 0.00 0.00 0.01 0.01 0.01 0.01 0.02 0.02 0.03 0.03 0.03 0.03 0.02
0.03 0.04 0.04 0.03 0.01 0.01 0.01 0.01 0.02 0.03 0.02 0.01 0.00 0.00 0.00 0.00 0.00 0.00 0.00 0.00 0.00 0.00 0.00 0.00 0.00 0.00 0.00 0.00 0.00 0.00 0.00 0.00 0.00 0.00 0.00 0.01 0.01 0.01 0.02 0.02 0.03 0.03 0.03 0.02
0.03 0.04 0.04 0.03 0.02 0.02 0.02 0.01 0.01 0.02 0.02 0.02 0.01 0.01 0.00 0.00 0.00 0.00 0.00 0.01 0.00 0.00 0.00 0.00 0.00 0.00 0.00 0.00 0.00 0.00 0.00 0.00 0.00 0.00 0.00 0.00 0.01 0.01 0.01 0.02 0.02 0.02 0.02 0.02
0.04 0.04 0.03 0.02 0.01 0.01 0.01 0.01 0.01 0.02 0.03 0.02 0.01 0.01 0.00 0.00 0.00 0.00 0.00 0.01 0.01 0.00 0.00 0.00 0.00 0.00 0.00 0.01 0.01 0.01 0.01 0.00 0.00 0.00 0.00 0.01 0.01 0.01 0.01 0.01 0.02 0.02 0.02 0.02
0.05 0.04 0.02 0.01 0.01 0.00 0.00 0.00 0.00 0.01 0.01 0.01 0.01 0.00 0.01 0.01 0.00 0.00 0.01 0.01 0.01 0.00 0.00 0.00 0.00 0.00 0.01 0.01 0.01 0.01 0.01 0.01 0.01 0.01 0.01 0.01 0.01 0.01 0.01 0.01 0.02 0.02 0.02 0.02
0.04 0.04 0.02 0.01 0.01 0.01 0.01 0.00 0.00 0.00 0.00 0.01 0.00 0.00 0.00 0.01 0.00 0.01 0.01 0.01 0.01 0.01 0.01 0.01 0.01 0.01 0.01 0.01 0.01 0.01 0.01 0.01 0.01 0.01 0.01 0.01 0.01 0.01 0.01 0.01 0.02 0.02 0.02 0.03
0.04 0.04 0.03 0.02 0.01 0.02 0.01 0.00 0.00 0.01 0.00 0.00 0.00 0.00 0.00 0.00 0.00 0.00 0.01 0.01 0.01 0.01 0.01 0.01 0.01 0.01 0.01 0.01 0.01 0.01 0.01 0.02 0.02 0.02 0.02 0.01 0.01 0.01 0.01 0.01 0.02 0.02 0.03 0.03
0.03 0.04 0.05 0.03 0.02 0.02 0.01 0.00 0.00 0.00 0.00 0.00 0.00 0.00 0.00 0.00 0.00 0.00 0.01 0.00 0.00 0.01 0.01 0.01 0.01 0.01 0.01 0.01 0.01 0.01 0.01 0.02 0.02 0.02 0.02 0.02 0.02 0.01 0.01 0.02 0.02 0.03 0.04 0.04
0.02 0.03 0.05 0.04 0.03 0.01 0.00 0.00 0.00 0.00 0.00 0.01 0.01 0.00 0.00 0.00 0.00 0.00 0.00 0.00 0.00 0.01 0.01 0.01 0.01 0.01 0.01 0.01 0.01 0.01 0.02 0.02 0.03 0.02 0.02 0.02 0.02 0.03 0.02 0.02 0.02 0.03 0.04 0.04
0.01 0.03 0.05 0.05 0.03 0.01 0.00 0.00 0.00 0.00 0.01 0.01 0.01 0.01 0.00 0.00 0.01 0.01 0.00 0.01 0.01 0.01 0.01 0.01 0.01 0.01 0.01 0.01 0.01 0.01 0.02 0.02 0.02 0.02 0.02 0.03 0.03 0.04 0.03 0.03 0.03 0.03 0.03 0.03
0.02 0.03 0.05 0.04 0.03 0.01 0.00 0.00 0.00 0.01 0.01 0.00 0.00 0.01 0.01 0.01 0.01 0.01 0.01 0.01 0.01 0.01 0.01 0.00 0.01 0.01 0.01 0.01 0.01 0.01 0.01 0.02 0.02 0.02 0.02 0.03 0.04 0.03 0.03 0.03 0.03 0.03 0.03 0.03
0.01 0.02 0.02 0.02 0.03 0.01 0.00 0.00 0.00 0.01 0.00 0.00 0.00 0.00 0.01 0.01 0.01 0.01 0.01 0.00 0.01 0.01 0.01 0.00 0.01 0.01 0.01 0.01 0.01 0.01 0.01 0.02 0.01 0.01 0.02 0.04 0.05 0.04 0.02 0.03 0.03 0.03 0.03 0.03
0.01 0.02 0.02 0.02 0.02 0.01 0.00 0.00 0.00 0.00 0.00 0.00 0.00 0.00 0.00 0.00 0.01 0.01 0.01 0.01 0.01 0.01 0.01 0.00 0.01 0.01 0.01 0.01 0.01 0.01 0.01 0.02 0.01 0.01 0.02 0.03 0.03 0.04 0.03 0.03 0.03 0.03 0.02 0.03
0.01 0.01 0.01 0.01 0.01 0.01 0.01 0.01 0.00 0.00 0.00 0.00 0.00 0.00 0.00 0.00 0.00 0.00 0.00 0.00 0.00 0.01 0.01 0.01 0.01 0.01 0.01 0.01 0.01 0.01 0.02 0.02 0.02 0.01 0.02 0.02 0.02 0.02 0.03 0.03 0.03 0.03 0.03 0.03
0.01 0.01 0.01 0.01 0.01 0.01 0.01 0.00 0.00 0.00 0.00 0.00 0.00 0.00 0.00 0.00 0.00 0.00 0.00 0.00 0.00 0.01 0.01 0.01 0.01 0.01 0.01 0.01 0.01 0.01 0.02 0.02 0.02 0.02 0.01 0.02 0.02 0.02 0.02 0.02 0.02 0.02 0.02 0.03
0.00 0.00 0.01 0.01 0.01 0.01 0.01 0.00 0.00 0.00 0.00 0.00 0.00 0.00 0.00 0.00 0.00 0.00 0.01 0.01 0.01 0.01 0.01 0.01 0.01 0.01 0.01 0.01 0.01 0.01 0.01 0.02 0.02 0.02 0.02 0.01 0.02 0.02 0.02 0.02 0.02 0.03 0.03 0.03
MSLP
1015.34 1015.19 1015.06 1015.01 1015.04 1015.13 1015.24 1015.31 1015.24 1014.97 1014.45 1013.67 1012.69 1011.57 1010.42 1009.38 1008.56 1008.04 1007.87 1008.04 1008.53 1009.25 1010.13 1011.09 1012.08 1013.04 1013.98 1014.89 1015.78 1016.66 1017.55 1018.42 1019.28 1020.09 1020.83 1021.48 1022.03 1022.48 1022.84 1023.12 1023.35 1023.54 1023.69 1023.82
1015.21 1015.03 1014.91 1014.87 1014.94 1015.08 1015.23 1015.32 1015.26 1014.96 1014.38 1013.51 1012.41 1011.15 1009.85 1008.67 1007.72 1007.08 1006.83 1006.94 1007.39 1008.11 1009.03 1010.04 1011.10 1012.15 1013.17 1014.18 1015.16 1016.13 1017.09 1018.04 1018.95 1019.80 1020.58 1021.27 1021.85 1022.33 1022.71 1023.03 1023.30 1023.52 1023.72 1023.89
1015.13 1014.93 1014.79 1014.76 1014.84 1015.00 1015.17 1015.26 1015.17 1014.83 1014.19 1013.24 1012.04 1010.68 1009.29 1008.01 1006.97 1006.26 1005.94 1006.00 1006.42 1007.13 1008.04 1009.07 1010.16 1011.26 1012.34 1013.41 1014.45 1015.48 1016.50 1017.50 1018.46 1019.36 1020.18 1020.90 1021.52 1022.05 1022.49 1022.86 1023.18 1023.47 1023.72 1023.94
1015.05 1014.83 1014.70 1014.67 1014.75 1014.91 1015.07 1015.13 1015.01 1014.62 1013.93 1012.92 1011.66 1010.24 1008.80 1007.47 1006.38 1005.63 1005.26 1005.29 1005.67 1006.34 1007.22 1008.24 1009.32 1010.42 1011.52 1012.60 1013.67 1014.74 1015.79 1016.81 1017.81 1018.74 1019.60 1020.37 1021.05 1021.64 1022.16 1022.61 1023.01 1023.38 1023.71 1024.00
1014.91 1014.71 1014.60 1014.59 1014.68 1014.83 1014.97 1015.00 1014.84 1014.41 1013.66 1012.62 1011.33 1009.89 1008.44 1007.10 1006.00 1005.23 1004.84 1004.83 1005.17 1005.79 1006.62 1007.59 1008.62 1009.69 1010.76 1011.82 1012.88 1013.94 1015.00 1016.03 1017.04 1018.00 1018.90 1019.73 1020.48 1021.15 1021.76 1022.31 1022.81 1023.27 1023.68 1024.05
1014.69 1014.55 1014.49 1014.52 1014.63 1014.79 1014.91 1014.92 1014.72 1014.25 1013.47 1012.41 1011.12 1009.69 1008.25 1006.93 1005.85 1005.08 1004.68 1004.63 1004.92 1005.48 1006.24 1007.13 1008.10 1009.11 1010.12 1011.14 1012.16 1013.19 1014.22 1015.25 1016.26 1017.24 1018.17 1019.05 1019.87 1020.63 1021.33 1021.99 1022.59 1023.15 1023.65 1024.08
1014.41 1014.36 1014.38 1014.48 1014.64 1014.82 1014.94 1014.92 1014.69 1014.19 1013.40 1012.33 1011.05 1009.65 1008.25 1006.96 1005.91 1005.15 1004.73 1004.66 1004.89 1005.38 1006.07 1006.88 1007.77 1008.70 1009.65 1010.61 1011.59 1012.57 1013.57 1014.57 1015.57 1016.55 1017.50 1018.42 1019.30 1020.14 1020.93 1021.68 1022.38 1023.02 1023.59 1024.08
1014.13 1014.20 1014.33 1014.52 1014.73 1014.94 1015.06 1015.03 1014.77 1014.25 1013.44 1012.38 1011.12 1009.76 1008.39 1007.15 1006.12 1005.37 1004.94 1004.84 1005.02 1005.45 1006.06 1006.80 1007.62 1008.48 1009.37 1010.28 1011.20 1012.14 1013.10 1014.07 1015.05 1016.02 1016.98 1017.92 1018.83 1019.72 1020.57 1021.39 1022.16 1022.86 1023.49 1024.03
1013.95 1014.15 1014.38 1014.65 1014.92 1015.15 1015.27 1015.22 1014.93 1014.38 1013.56 1012.51 1011.27 1009.94 1008.62 1007.41 1006.40 1005.66 1005.22 1005.08 1005.22 1005.59 1006.14 1006.82 1007.59 1008.41 1009.26 1010.13 1011.02 1011.93 1012.85 1013.79 1014.74 1015.68 1016.63 1017.56 1018.48 1019.39 1020.27 1021.12 1021.92 1022.66 1023.32 1023.88
1013.99 1014.26 1014.58 1014.90 1015.19 1015.41 1015.51 1015.42 1015.09 1014.51 1013.68 1012.63 1011.41 1010.12 1008.83 1007.66 1006.68 1005.94 1005.49 1005.32 1005.41 1005.73 1006.24 1006.88 1007.62 1008.41 1009.25 1010.11 1010.98 1011.88 1012.78 1013.69 1014.60 1015.51 1016.42 1017.33 1018.23 1019.12 1019.99 1020.83 1021.63 1022.38 1023.05 1023.62
1014.27 1014.58 1014.90 1015.21 1015.47 1015.65 1015.68 1015.53 1015.16 1014.54 1013.70 1012.65 1011.47 1010.21 1008.97 1007.84 1006.88 1006.15 1005.69 1005.49 1005.54 1005.83 1006.30 1006.91 1007.63 1008.42 1009.26 1010.12 1011.00 1011.89 1012.78 1013.67 1014.55 1015.42 1016.29 1017.15 1018.00 1018.84 1019.67 1020.48 1021.26 1021.99 1022.65 1023.23
1014.79 1015.03 1015.28 1015.51 1015.68 1015.76 1015.70 1015.47 1015.04 1014.39 1013.55 1012.53 1011.40 1010.20 1009.02 1007.94 1007.02 1006.31 1005.84 1005.61 1005.63 1005.87 1006.30 1006.89 1007.59 1008.37 1009.21 1010.08 1010.96 1011.85 1012.73 1013.60 1014.45 1015.29 1016.11 1016.92 1017.71 1018.50 1019.27 1020.04 1020.77 1021.47 1022.12 1022.70
1015.44 1015.53 1015.63 1015.70 1015.72 1015.66 1015.49 1015.17 1014.69 1014.04 1013.23 1012.27 1011.22 1010.12 1009.04 1008.04 1007.17 1006.49 1006.01 1005.76 1005.74 1005.92 1006.30 1006.83 1007.49 1008.24 1009.05 1009.90 1010.78 1011.65 1012.52 1013.37 1014.20 1015.00 1015.78 1016.54 1017.29 1018.03 1018.75 1019.47 1020.17 1020.84 1021.48 1022.07
1016.09 1015.95 1015.82 1015.69 1015.52 1015.31 1015.02 1014.64 1014.14 1013.53 1012.79 1011.95 1011.04 1010.08 1009.13 1008.24 1007.46 1006.81 1006.34 1006.06 1005.98 1006.08 1006.37 1006.81 1007.37 1008.05 1008.79 1009.59 1010.41 1011.25 1012.08 1012.90 1013.70 1014.48 1015.24 1015.98 1016.70 1017.41 1018.10 1018.79 1019.47 1020.13 1020.76 1021.37
1016.61 1016.20 1015.82 1015.46 1015.10 1014.75 1014.38 1013.97 1013.51 1012.99 1012.40 1011.73 1011.00 1010.24 1009.47 1008.72 1008.04 1007.45 1006.98 1006.65 1006.49 1006.48 1006.63 1006.92 1007.35 1007.88 1008.49 1009.17 1009.90 1010.66 1011.43 1012.21 1012.97 1013.74 1014.48 1015.22 1015.94 1016.65 1017.35 1018.04 1018.71 1019.38 1020.02 1020.65
1016.94 1016.27 1015.64 1015.07 1014.56 1014.11 1013.71 1013.34 1012.98 1012.62 1012.22 1011.79 1011.30 1010.77 1010.20 1009.62 1009.04 1008.51 1008.04 1007.65 1007.38 1007.22 1007.19 1007.29 1007.51 1007.83 1008.26 1008.77 1009.34 1009.97 1010.64 1011.35 1012.07 1012.81 1013.57 1014.32 1015.07 1015.81 1016.54 1017.26 1017.95 1018.63 1019.30 1019.94
1017.13 1016.22 1015.40 1014.68 1014.07 1013.60 1013.23 1012.97 1012.78 1012.62 1012.47 1012.30 1012.07 1011.79 1011.43 1011.02 1010.55 1010.06 1009.58 1009.11 1008.71 1008.37 1008.13 1007.99 1007.96 1008.03 1008.21 1008.49 1008.86 1009.31 1009.85 1010.45 1011.12 1011.83 1012.58 1013.36 1014.16 1014.95 1015.73 1016.50 1017.23 1017.94 1018.63 1019.29
1017.29 1016.22 1015.28 1014.48 1013.87 1013.43 1013.18 1013.07 1013.09 1013.17 1013.29 1013.38 1013.41 1013.35 1013.19 1012.92 1012.54 1012.08 1011.56 1011.00 1010.45 1009.93 1009.45 1009.06 1008.75 1008.55 1008.45 1008.46 1008.59 1008.84 1009.20 1009.67 1010.25 1010.92 1011.66 1012.46 1013.30 1014.14 1014.98 1015.80 1016.58 1017.32 1018.02 1018.68
1017.59 1016.45 1015.47 1014.69 1014.13 1013.81 1013.71 1013.79 1014.03 1014.35 1014.70 1015.02 1015.26 1015.39 1015.37 1015.19 1014.86 1014.40 1013.83 1013.18 1012.48 1011.78 1011.09 1010.46 1009.89 1009.41 1009.03 1008.78 1008.65 1008.67 1008.83 1009.15 1009.61 1010.19 1010.90 1011.69 1012.55 1013.43 1014.32 1015.18 1015.99 1016.75 1017.46 1018.11
1018.16 1017.03 1016.10 1015.40 1014.96 1014.79 1014.86 1015.14 1015.57 1016.08 1016.61 1017.09 1017.47 1017.70 1017.76 1017.62 1017.30 1016.81 1016.18 1015.44 1014.62 1013.77 1012.91 1012.08 1011.29 1010.58 1009.96 1009.46 1009.09 1008.88 1008.83 1008.96 1009.27 1009.75 1010.37 1011.12 1011.95 1012.84 1013.74 1014.62 1015.45 1016.21 1016.91 1017.54
1019.04 1018.00 1017.17 1016.61 1016.32 1016.31 1016.54 1016.98 1017.55 1018.19 1018.82 1019.38 1019.81 1020.06 1020.12 1019.96 1019.60 1019.07 1018.38 1017.57 1016.68 1015.73 1014.76 1013.79 1012.86 1011.98 1011.17 1010.47 1009.89 1009.47 1009.22 1009.15 1009.28 1009.61 1010.11 1010.76 1011.52 1012.36 1013.24 1014.09 1014.91 1015.66 1016.33 1016.93
1020.15 1019.25 1018.57 1018.16 1018.02 1018.16 1018.53 1019.08 1019.74 1020.43 1021.08 1021.63 1022.02 1022.22 1022.22 1022.00 1021.58 1020.99 1020.26 1019.41 1018.49 1017.51 1016.50 1015.49 1014.48 1013.51 1012.59 1011.75 1011.01 1010.40 1009.96 1009.69 1009.63 1009.76 1010.09 1010.59 1011.23 1011.98 1012.77 1013.57 1014.35 1015.06 1015.70 1016.27
1021.33 1020.58 1020.06 1019.81 1019.82 1020.08 1020.55 1021.16 1021.84 1022.52 1023.12 1023.60 1023.90 1024.00 1023.90 1023.59 1023.11 1022.47 1021.72 1020.88 1019.97 1019.03 1018.05 1017.07 1016.07 1015.09 1014.12 1013.20 1012.35 1011.60 1010.98 1010.52 1010.24 1010.17 1010.29 1010.60 1011.06 1011.66 1012.33 1013.03 1013.74 1014.40 1015.00 1015.55
1022.34 1021.76 1021.40 1021.29 1021.43 1021.79 1022.32 1022.96 1023.63 1024.26 1024.79 1025.16 1025.35 1025.34 1025.13 1024.74 1024.20 1023.54 1022.80 1021.99 1021.15 1020.28 1019.39 1018.49 1017.57 1016.62 1015.67 1014.73 1013.81 1012.95 1012.19 1011.55 1011.06 1010.76 1010.66 1010.74 1010.99 1011.39 1011.90 1012.48 1013.08 1013.67 1014.23 1014.75
1023.01 1022.58 1022.37 1022.40 1022.65 1023.10 1023.68 1024.33 1024.98 1025.56 1026.01 1026.29 1026.38 1026.27 1025.99 1025.54 1024.97 1024.31 1023.60 1022.85 1022.10 1021.33 1020.56 1019.76 1018.94 1018.08 1017.18 1016.24 1015.30 1014.36 1013.48 1012.68 1012.01 1011.49 1011.14 1010.98 1011.00 1011.18 1011.50 1011.91 1012.39 1012.90 1013.41 1013.91
1023.24 1022.95 1022.88 1023.03 1023.40 1023.93 1024.57 1025.25 1025.90 1026.46 1026.86 1027.09 1027.13 1026.97 1026.64 1026.17 1025.60 1024.96 1024.30 1023.62 1022.95 1022.29 1021.61 1020.92 1020.19 1019.41 1018.57 1017.67 1016.71 1015.73 1014.76 1013.83 1012.99 1012.27 1011.70 1011.30 1011.08 1011.03 1011.14 1011.38 1011.72 1012.12 1012.58 1013.05
Thickness
5538 5532 5527 5531 5534 5537 5536 5534 5532 5534 5533 5526 5524 5528 5532 5531 5529 5530 5531 5532 5531 5531 5532 5531 5531 5530 5530 5530 5531 5531 5532 5532 5533 5534 5534 5535 5535 5535 5534 5534 5534 5535 5535 5535
5526 5521 5528 5531 5530 5527 5525 5522 5523 5525 5524 5518 5517 5522 5528 5527 5526 5526 5525 5524 5523 5522 5523 5522 5522 5521 5521 5520 5521 5521 5522 5522 5522 5523 5524 5524 5524 5523 5523 5522 5523 5523 5523 5523
5517 5520 5522 5520 5518 5515 5516 5514 5515 5513 5511 5511 5507 5516 5524 5524 5522 5520 5520 5519 5518 5516 5514 5514 5512 5510 5510 5511 5511 5512 5511 5511 5511 5511 5512 5512 5512 5512 5512 5511 5511 5512 5512 5512
5509 5514 5512 5509 5508 5507 5506 5512 5508 5503 5496 5497 5502 5498 5520 5518 5511 5511 5509 5509 5508 5507 5506 5504 5502 5501 5500 5500 5500 5500 5500 5500 5500 5500 5500 5500 5500 5499 5499 5499 5500 5501 5500 5501
5501 5502 5500 5498 5501 5501 5499 5500 5497 5495 5490 5486 5493 5486 5505 5513 5506 5504 5502 5500 5499 5497 5496 5494 5492 5491 5489 5489 5489 5489 5489 5489 5489 5489 5488 5487 5487 5487 5487 5488 5489 5489 5489 5490
5492 5495 5492 5493 5493 5493 5489 5488 5488 5485 5479 5469 5490 5485 5495 5500 5502 5501 5497 5494 5491 5488 5486 5483 5481 5479 5478 5477 5477 5477 5477 5477 5477 5477 5476 5476 5476 5476 5476 5476 5476 5476 5477 5478
5484 5484 5484 5484 5481 5480 5477 5471 5465 5463 5462 5472 5489 5484 5488 5496 5496 5493 5488 5484 5481 5478 5474 5472 5469 5468 5467 5466 5466 5465 5465 5464 5464 5464 5464 5464 5465 5465 5464 5464 5464 5464 5465 5467
5471 5473 5474 5472 5472 5468 5469 5468 5458 5453 5463 5474 5473 5474 5483 5487 5484 5481 5478 5473 5469 5466 5463 5461 5459 5457 5455 5454 5453 5452 5452 5452 5451 5451 5451 5451 5452 5452 5452 5452 5452 5453 5454 5456
5462 5465 5464 5464 5465 5463 5461 5457 5462 5453 5447 5445 5465 5475 5479 5475 5471 5468 5466 5462 5458 5455 5453 5450 5448 5446 5444 5442 5442 5441 5440 5439 5439 5438 5438 5438 5438 5439 5440 5440 5441 5442 5443 5444
5452 5445 5453 5453 5454 5452 5453 5453 5444 5439 5435 5442 5465 5474 5474 5468 5464 5459 5455 5452 5448 5445 5442 5440 5436 5434 5432 5431 5430 5429 5429 5428 5427 5426 5426 5426 5425 5426 5427 5428 5429 5430 5431 5433
5439 5434 5440 5439 5437 5441 5438 5437 5436 5435 5436 5436 5442 5462 5476 5466 5459 5452 5449 5444 5439 5434 5431 5428 5425 5423 5421 5419 5418 5417 5417 5416 5415 5414 5413 5413 5413 5414 5414 5415 5416 5417 5418 5420
5429 5427 5427 5432 5433 5433 5434 5434 5427 5419 5419 5428 5433 5445 5460 5455 5451 5444 5438 5434 5429 5425 5422 5418 5416 5413 5410 5407 5406 5405 5404 5403 5403 5402 5402 5401 5401 5401 5401 5402 5403 5404 5406 5408
5415 5412 5411 5420 5421 5416 5417 5420 5418 5411 5409 5413 5416 5434 5446 5441 5437 5434 5428 5423 5419 5414 5411 5407 5404 5401 5398 5396 5394 5393 5391 5390 5390 5389 5388 5388 5388 5388 5389 5390 5391 5393 5394 5396
5408 5400 5403 5413 5423 5413 5407 5408 5407 5402 5400 5407 5419 5429 5434 5429 5424 5421 5416 5412 5407 5404 5400 5396 5392 5389 5387 5384 5382 5381 5379 5377 5377 5376 5375 5375 5375 5376 5377 5378 5379 5381 5383 5384
5391 5387 5388 5394 5399 5400 5402 5404 5401 5396 5402 5402 5418 5421 5425 5419 5413 5410 5407 5403 5399 5395 5390 5386 5382 5378 5375 5373 5371 5369 5367 5365 5364 5363 5362 5362 5362 5363 5364 5365 5367 5369 5371 5373
5378 5374 5374 5376 5386 5385 5387 5396 5398 5397 5397 5398 5404 5408 5416 5407 5401 5398 5395 5392 5387 5383 5379 5375 5371 5366 5363 5361 5359 5357 5355 5353 5352 5351 5350 5350 5349 5350 5351 5353 5355 5357 5358 5360
5363 5358 5360 5368 5369 5369 5370 5390 5393 5392 5395 5393 5394 5403 5400 5394 5390 5385 5381 5378 5374 5370 5366 5361 5357 5353 5350 5347 5346 5344 5342 5341 5339 5338 5337 5337 5336 5337 5338 5340 5342 5344 5345 5348
5355 5349 5347 5349 5351 5355 5397 5403 5399 5393 5392 5389 5390 5389 5387 5381 5375 5371 5368 5364 5360 5356 5351 5347 5343 5340 5337 5335 5332 5331 5329 5328 5326 5324 5324 5323 5323 5324 5325 5327 5329 5331 5333 5335
5352 5346 5341 5338 5341 5361 5388 5389 5384 5381 5380 5378 5376 5373 5369 5365 5364 5359 5355 5350 5344 5340 5335 5331 5328 5326 5324 5323 5321 5318 5317 5315 5313 5312 5311 5311 5312 5312 5313 5315 5317 5319 5321 5324
5341 5337 5331 5333 5334 5343 5383 5372 5371 5370 5365 5364 5362 5358 5355 5352 5350 5349 5340 5335 5329 5324 5320 5317 5315 5313 5311 5309 5307 5305 5303 5302 5300 5299 5299 5299 5300 5302 5303 5305 5307 5309 5310 5313
5321 5321 5320 5323 5328 5348 5357 5350 5355 5353 5360 5350 5347 5343 5340 5336 5333 5328 5324 5320 5315 5311 5307 5304 5302 5299 5298 5296 5295 5293 5290 5288 5287 5286 5287 5288 5290 5292 5294 5296 5297 5298 5300 5302
5324 5319 5317 5320 5321 5339 5336 5335 5337 5340 5335 5333 5331 5328 5324 5319 5316 5313 5309 5305 5301 5297 5294 5292 5289 5286 5284 5283 5282 5280 5277 5275 5274 5274 5275 5276 5278 5280 5282 5283 5284 5285 5287 5288
5328 5330 5330 5329 5334 5329 5322 5321 5318 5318 5316 5316 5314 5312 5309 5305 5302 5300 5297 5293 5290 5286 5283 5280 5276 5274 5272 5270 5268 5266 5264 5263 5262 5262 5263 5264 5266 5267 5268 5270 5271 5272 5273 5274
5316 5313 5316 5314 5317 5313 5309 5306 5304 5303 5302 5301 5298 5296 5295 5292 5290 5288 5285 5283 5278 5275 5271 5267 5263 5260 5258 5256 5254 5252 5251 5250 5250 5250 5251 5252 5254 5255 5255 5256 5257 5258 5259 5260
5308 5297 5299 5299 5302 5299 5298 5296 5293 5291 5288 5285 5283 5281 5279 5278 5276 5274 5273 5270 5266 5263 5258 5254 5250 5248 5245 5243 5241 5239 5238 5237 5238 5238 5239 5240 5241 5242 5242 5242 5243 5244 5246 5247
5296 5290 5292 5301 5299 5293 5294 5285 5281 5278 5274 5272 5269 5267 5266 5264 5263 5261 5259 5256 5252 5249 5245 5241 5238 5235 5232 5230 5229 5227 5225 5225 5225 5226 5227 5227 5228 5229 5229 5230 5230 5231 5233 5235